Regional Weather Roundup
Issued by NWS

Home | Current Version | Previous Version | Graphics & Text | Print | Product List | Glossary On
Versions: 1 2 3 4 5 6 7 8 9 10 11 12 13 14 15 16 17 18 19 20 21 22 23 24 25 26 27 28 29 30 31 32 33 34 35 36 37 38 39 40 41 42 43 44 45 46 47 48 49 50
959
ASUS44 KJAN 271203
RWRMS

MISSISSIPPI HOURLY WEATHER ROUNDUP
NATIONAL WEATHER SERVICE JACKSON MS
600 AM CST TUE JAN 27 2015

NOTE: "FAIR: INDICATES FEW OR NO CLOUDS BELOW 12,000 FEET WITH NO
SIGNIFICANT WEATHER AND/OR OBSTRUCTIONS TO VISIBILITY.

MSZ001>002-007>008-010>013-018>021-025>028-034>036-271300-
NORTHWEST MISSISSIPPI

CITY           SKY/WX    TMP DP  RH WIND       PRES   REMARKS
CLARKSDALE     FAIR      39  36  87 NW8       30.05R WCI  34
CLEVELAND      FAIR      40  37  89 NW5       30.04R
GREENWOOD      CLEAR     35  33  92 CALM      30.04R
6HR MIN TEMP:  34; 6HR MAX TEMP:  45;

GREENVILLE     CLEAR     41  34  76 NW6       30.04R
6HR MIN TEMP:  40; 6HR MAX TEMP:  49;

GRENADA        FAIR      32  32 100 CALM      30.03R
OLIVE BRANCH   CLEAR     36  36 100 W6        30.00R WCI  31
OXFORD         FAIR      32  28  86 CALM      30.03R
TUNICA         SUNNY     41  34  75 NW9       30.04R
$$

MSZ003>006-009-014>017-022>024-029>033-037>039-271300-
NORTHEAST MISSISSIPPI

CITY           SKY/WX    TMP DP  RH WIND       PRES   REMARKS
COLUMBUS AFB   CLEAR     37  32  83 W5        30.00R WCI  33
6HR MIN TEMP:  28; 6HR MAX TEMP:  38;

CORINTH        FAIR      30  28  93 CALM      29.97R
GOLDN TRIANGLE CLEAR     41  34  75 NW6       29.99R
STARKVILLE     FAIR      43  36  75 CALM      30.01R
TUPELO         CLEAR     41  33  73 NW5       29.99R
6HR MIN TEMP:  33; 6HR MAX TEMP:  44;

$$

MSZ040-058-271300-
CENTRAL MISSISSIPPI

CITY           SKY/WX    TMP DP  RH WIND       PRES   REMARKS
JACKSON INTL   CLEAR     42  34  73 CALM      30.04R
6HR MIN TEMP:  38; 6HR MAX TEMP:  47;

JACKSON HAWKNS CLEAR     44  34  67 W3        30.05R
6HR MIN TEMP:  43; 6HR MAX TEMP:  48;

MERIDIAN KEY   CLEAR     32  30  92 CALM      30.02R
6HR MIN TEMP:  32; 6HR MAX TEMP:  37;

MERIDIAN NAS   CLEAR     40  34  79 W7        30.01R
6HR MIN TEMP:  37; 6HR MAX TEMP:  43;

RAYMOND        FAIR      34  30  86 MISG      30.05R
VICKSBURG      CLEAR     36  33  89 CALM      30.06R
6HR MIN TEMP:  33; 6HR MAX TEMP:  44;

$$

MSZ059>079-271300-
SOUTH MISSISSIPPI

CITY           SKY/WX    TMP DP  RH WIND       PRES   REMARKS
BROOKHAVEN     FAIR      41  36  81 CALM      30.06S
HATTIESBURG    CLEAR     46  35  65 W3        30.05R
6HR MIN TEMP:  36; 6HR MAX TEMP:  48;

MCCOMB         CLEAR     43  34  70 NW3       30.05R
6HR MIN TEMP:  43; 6HR MAX TEMP:  46;

NATCHEZ        CLEAR     39  34  81 S3        30.06S
6HR MIN TEMP:  39; 6HR MAX TEMP:  46;

PINE BELT      CLEAR     45  34  65 W6        30.04R
6HR MIN TEMP:  39; 6HR MAX TEMP:  45;

$$

MSZ080>082-271300-
COASTAL MISSISSIPPI

CITY           SKY/WX    TMP DP  RH WIND       PRES   REMARKS
BILOXI         CLEAR     45  40  81 NW8       30.04R
6HR MIN TEMP:  44; 6HR MAX TEMP:  48;

PASCAGOULA     CLEAR     44  38  79 W3        30.04R
6HR MIN TEMP:  37; 6HR MAX TEMP:  44;

GULFPORT       CLEAR     44  38  79 NW7       30.05R
6HR MIN TEMP:  39; 6HR MAX TEMP:  45;

$$



USA.gov is the U.S. government's official web portal to all federal, state and local government web resources and services.